[[{"header":{"parameterUnit":"m.s-1","parameterCategory":1,"la1":30.2991,"la2":30.254,"lo1":-89.0895,"lo2":-89.0444,"dy":0.0017,"dx":0.0017,"nx":28,"ny":28,"refTime":"2024-05-19T03:00:00:Z","depth":0,"parameterNumber":2,"parameterNumberName":"U-component_of_WINDS"},"data":[0,0,0,0,0,0,0,0,0,0,0,0,0,0,0,0,0,0,0,0,0,0,0,0,0,0,0,0,0,0,0,0,0,0,0,0,0,0,0,0,0,0,0,0,0,0,0,0,0,0,0,0,0,0,0,0,0,0,2.9859,2.986,0,2.9937,2.9937,2.9938,2.9903,2.9901,2.9899,2.9897,2.9979,2.9983,2.9987,0,0,0,0,0,0,0,0,0,0,0,0,0,2.9685,2.9688,2.9859,2.986,2.9861,2.9936,2.9938,2.9939,2.9903,2.9901,2.9898,2.9896,2.9978,2.9982,2.9987,0,0,0,0,0,0,0,0,0,0,0,0,0,2.9761,2.9689,2.9859,2.9853,2.9853,2.9936,2.9938,2.9939,2.9904,2.9901,2.9898,2.9895,2.9976,2.9982,2.9988,3.0083,0,0,3.0006,3.0009,0,0,0,0,0,0,0,0,2.9757,2.9768,2.9853,2.9853,2.9854,2.9907,2.9906,2.9987,2.9904,2.9884,2.9897,2.9894,2.9957,2.9965,2.9986,3.0087,3.009,3.0006,3.001,3.0013,3.0014,0,0,0,0,0,0,0,2.9752,2.9764,2.989,2.9854,2.9855,2.9847,2.9855,2.9921,2.9936,2.9886,2.9883,2.9893,2.9957,2.998,2.9987,3.0091,3.0006,3.0012,3.0015,3.0018,3.0277,3.028,0,0,0,0,0,0,2.9746,2.976,2.9887,2.9892,2.9797,2.9853,2.9861,2.9893,2.9936,2.9939,2.9895,2.9891,2.9971,2.998,2.999,3.0106,3.0013,3.0018,3.0022,3.0274,3.0278,3.0282,0,0,0,0,0,0,2.9743,2.9758,2.9884,2.9826,2.9841,2.9859,2.9895,2.9896,2.9919,2.9943,2.9946,2.9916,2.9969,2.9982,3.0061,3.0108,3.0021,3.0026,3.027,3.0275,3.028,3.0338,0,0,0,0,0,0,2.9738,2.9757,2.9792,2.9827,2.9844,2.9952,2.9898,2.99,2.9929,2.9924,2.9963,2.9966,2.9968,3.0052,3.0066,3.0115,3.0031,3.0266,3.0272,3.0278,3.0332,3.0344,3.0355,0,0,0,0,0,2.9732,2.9806,2.9794,2.981,2.9889,2.9955,2.9966,2.9965,2.9933,2.9969,2.9985,2.9965,3.0101,3.006,3.0076,3.0128,3.0263,3.027,3.0278,3.0327,3.0342,3.0355,0,0,0,0,0,0,2.9777,2.981,2.9798,2.9885,2.9917,2.9949,2.9995,2.9981,3.0024,3.0018,3.0017,3.0026,3.0108,3.0125,3.008,3.0223,3.0177,3.0188,3.0209,3.0223,3.0235,3.0229,3.0036,0,0,0,0,0,2.9797,2.9847,2.9873,2.9948,2.9965,2.9977,3.0006,3.0003,3.0037,3.0051,3.0073,3.0108,3.0158,3.0192,3.0239,3.0334,3.0343,3.0378,3.0389,3.0399,3.0408,3.0462,3.0478,3.0306,3.0306,3.0306,0,0,2.9839,2.9863,2.9895,2.9958,2.9983,3.0036,2.9989,3.0047,3.0087,3.006,3.0136,3.0154,3.0192,3.028,3.032,3.0298,3.0458,3.0408,3.0415,3.042,3.0472,3.0488,3.0502,3.0311,3.031,3.0309,0,0,2.9943,2.9965,3.0031,3.0057,3.0095,3.0103,3.0119,3.0154,3.0164,3.024,3.0222,3.027,3.0356,3.0386,3.0412,3.0529,3.0513,3.0545,3.0606,3.0658,3.0672,3.0684,3.0727,3.0743,3.0554,3.0555,3.0555,0,2.999,3.0069,3.0066,3.0126,3.0156,3.0133,3.0201,3.0226,3.0279,3.03,3.0274,3.0384,3.0408,3.0504,3.0532,3.0554,3.0573,3.0541,3.0669,3.0682,3.0693,3.0735,3.0751,3.0558,3.0558,3.0557,3.0557,0,3.0127,3.0182,3.023,3.0281,3.0316,3.0379,3.0388,3.0423,3.0418,3.0429,3.0508,3.0537,3.0591,3.0613,3.0608,3.0709,3.0694,3.0669,3.0622,3.0713,3.0752,3.0768,3.0564,3.0562,3.0561,3.056,0,0,3.0261,3.031,3.0328,3.0352,3.0394,3.0437,3.05,3.0553,3.0584,3.0622,3.0676,3.0751,3.0728,3.0758,3.0757,3.0802,3.0896,3.0772,3.0773,3.0795,3.1011,3.103,3.1049,3.0885,3.0888,3.0891,3.1008,0,3.0369,3.0479,3.0479,3.0581,3.0634,3.0614,3.0669,3.0702,3.0715,3.0762,3.0776,3.083,3.0795,3.0813,3.0858,3.0875,3.0939,3.0866,3.0938,3.094,3.093,3.1069,3.1089,3.1199,3.1023,3.1026,3.1028,0,3.051,3.0552,3.0659,3.0695,3.0717,3.0766,3.0816,3.086,3.0898,3.0904,3.0938,3.093,3.0997,3.0948,3.104,3.0991,3.102,3.1033,3.1038,3.1045,3.099,3.1082,3.1233,3.125,3.1051,3.105,3.1048,0,3.0599,3.0683,3.0758,3.0779,3.0822,3.0858,3.0878,3.0912,3.0944,3.0987,3.1009,3.1059,3.1088,3.1128,3.1135,3.1098,3.1229,3.118,3.1237,3.1237,3.1266,3.1265,3.1426,3.1283,3.1283,3.1282,3.1282,0,3.0721,3.0788,3.0799,3.0845,3.092,3.0921,3.0996,3.1013,3.1044,3.1094,3.1081,3.1129,3.1134,3.1184,3.119,3.1267,3.128,3.1288,3.1289,3.129,3.1289,3.131,3.1303,3.1287,3.1286,3.1285,3.1284,0,3.0833,3.0843,3.0925,3.0959,3.0969,3.1023,3.1054,3.1099,3.1111,3.1175,3.1191,3.1209,3.1268,3.1278,3.1348,3.1352,3.1444,3.1437,3.1432,3.1431,3.1489,3.1484,3.167,3.1696,3.1535,3.1536,3.1537,0,3.0911,3.0962,3.1002,3.1035,3.1056,3.1109,3.1142,3.1145,3.118,3.1228,3.1268,3.1325,3.1371,3.1466,3.1487,3.154,3.1535,3.1597,3.1543,3.1543,3.1538,3.1535,3.1542,3.1607,3.1609,3.1611,3.1612,0,3.1048,3.1051,3.1098,3.1149,3.1188,3.1228,3.1265,3.1293,3.1302,3.1342,3.1402,3.1438,3.1509,3.1566,3.162,3.1642,3.163,3.1628,3.1645,3.1647,3.1643,3.1648,3.1461,3.1624,3.1623,3.1622,3.1621,3.1621,3.1146,3.1192,3.1227,3.1282,3.131,3.1346,3.1391,3.1409,3.1458,3.1516,3.1515,3.1581,3.1619,3.1689,3.1715,3.1768,3.1748,3.1771,3.1778,3.1784,3.179,3.1633,3.1777,3.1777,3.1776,3.1776,3.1776,0,3.1284,3.1307,3.1356,3.141,3.1453,3.1436,3.1477,3.1515,3.1573,3.1609,3.1655,3.1724,3.1781,3.1806,3.1862,3.19,3.1896,3.1915,3.1912,3.1918,3.1803,3.1784,3.1917,3.1917,3.1917,3.1917,3.1917,3.1917,3.1361,3.1437,3.1445,3.1536,3.1558,3.1622,3.1647,3.1681,3.171,3.1788,3.1835,3.1851,3.1884,3.1942,3.1994,3.2,3.2022,3.2044,3.2048,3.194,3.1926,3.1912,3.1894,3.2048,3.2048,3.2158,3.2159,3.216]},{"header":{"parameterUnit":"m.s-1","parameterCategory":1,"la1":30.2991,"la2":30.254,"lo1":-89.0895,"lo2":-89.0444,"dy":0.0017,"dx":0.0017,"nx":28,"ny":28,"refTime":"2024-05-19T03:00:00:Z","depth":0,"parameterNumber":3,"parameterNumberName":"V-component_of_WINDS"},"data":[0,0,0,0,0,0,0,0,0,0,0,0,0,0,0,0,0,0,0,0,0,0,0,0,0,0,0,0,0,0,0,0,0,0,0,0,0,0,0,0,0,0,0,0,0,0,0,0,0,0,0,0,0,0,0,0,0,0,-0.3247,-0.3248,0,-0.3251,-0.3251,-0.3251,-0.3244,-0.3244,-0.3244,-0.3244,-0.3248,-0.3248,-0.3248,0,0,0,0,0,0,0,0,0,0,0,0,0,-0.3235,-0.3236,-0.3247,-0.3248,-0.3248,-0.3251,-0.3251,-0.3251,-0.3244,-0.3244,-0.3244,-0.3244,-0.3248,-0.3248,-0.3249,0,0,0,0,0,0,0,0,0,0,0,0,0,-0.324,-0.3236,-0.3247,-0.3245,-0.3244,-0.3251,-0.3251,-0.3251,-0.3245,-0.3244,-0.3244,-0.3244,-0.3248,-0.3248,-0.3249,-0.3258,0,0,-0.325,-0.325,0,0,0,0,0,0,0,0,-0.324,-0.3241,-0.3245,-0.3245,-0.3245,-0.3247,-0.3248,-0.3254,-0.3245,-0.3244,-0.3244,-0.3243,-0.3248,-0.3248,-0.325,-0.3259,-0.3259,-0.325,-0.325,-0.3251,-0.3251,0,0,0,0,0,0,0,-0.3239,-0.324,-0.3249,-0.3245,-0.3245,-0.3243,-0.3244,-0.3249,-0.3248,-0.3244,-0.3244,-0.3244,-0.3248,-0.3249,-0.325,-0.3259,-0.325,-0.325,-0.3251,-0.3251,-0.3276,-0.3277,0,0,0,0,0,0,-0.3239,-0.324,-0.3249,-0.3249,-0.3241,-0.3244,-0.3244,-0.3247,-0.3248,-0.3248,-0.3245,-0.3244,-0.3249,-0.3249,-0.325,-0.3262,-0.3251,-0.3251,-0.3251,-0.3276,-0.3276,-0.3277,0,0,0,0,0,0,-0.3239,-0.324,-0.3249,-0.3244,-0.3245,-0.3244,-0.3247,-0.3247,-0.3248,-0.3248,-0.3248,-0.3247,-0.3248,-0.3249,-0.3256,-0.3262,-0.3251,-0.3252,-0.3275,-0.3276,-0.3277,-0.3285,0,0,0,0,0,0,-0.3239,-0.324,-0.3244,-0.3245,-0.3246,-0.3255,-0.3247,-0.3247,-0.3249,-0.3248,-0.325,-0.325,-0.3248,-0.3256,-0.3257,-0.3262,-0.3252,-0.3275,-0.3276,-0.3276,-0.3284,-0.3286,-0.3287,0,0,0,0,0,-0.3238,-0.3246,-0.3244,-0.3245,-0.325,-0.3255,-0.3256,-0.3254,-0.325,-0.3253,-0.3253,-0.325,-0.3261,-0.3256,-0.3258,-0.3263,-0.3275,-0.3276,-0.3276,-0.3283,-0.3285,-0.3287,0,0,0,0,0,0,-0.3246,-0.3246,-0.3244,-0.3251,-0.3253,-0.3254,-0.3258,-0.3256,-0.3259,-0.3258,-0.3255,-0.3256,-0.3264,-0.3264,-0.3259,-0.3273,-0.3267,-0.3268,-0.3272,-0.3274,-0.3275,-0.3275,-0.3252,0,0,0,0,0,-0.3248,-0.3252,-0.3252,-0.3259,-0.326,-0.3259,-0.3261,-0.326,-0.3262,-0.3262,-0.3263,-0.3265,-0.3269,-0.3272,-0.3275,-0.3284,-0.3285,-0.3289,-0.329,-0.3292,-0.3292,-0.3298,-0.33,-0.328,-0.328,-0.328,0,0,-0.3253,-0.3254,-0.3256,-0.3261,-0.3262,-0.3266,-0.326,-0.3265,-0.3268,-0.3263,-0.327,-0.327,-0.3273,-0.3281,-0.3285,-0.3282,-0.3298,-0.3293,-0.3294,-0.3294,-0.3299,-0.3301,-0.3302,-0.328,-0.328,-0.328,0,0,-0.3265,-0.3266,-0.3271,-0.3273,-0.3275,-0.3274,-0.3276,-0.3277,-0.3277,-0.3284,-0.328,-0.3285,-0.3292,-0.3293,-0.3295,-0.3308,-0.3305,-0.331,-0.3317,-0.3322,-0.3324,-0.3325,-0.333,-0.3332,-0.3311,-0.3311,-0.3311,0,-0.3271,-0.3277,-0.3275,-0.328,-0.3282,-0.3278,-0.3284,-0.3286,-0.3289,-0.3291,-0.3287,-0.3296,-0.3298,-0.3306,-0.331,-0.3311,-0.3313,-0.3309,-0.3324,-0.3325,-0.3326,-0.3331,-0.3333,-0.3311,-0.3311,-0.3311,-0.3311,0,-0.3284,-0.3289,-0.3294,-0.3297,-0.3299,-0.3305,-0.3304,-0.3307,-0.3306,-0.3306,-0.3313,-0.3314,-0.3318,-0.332,-0.3319,-0.3329,-0.3327,-0.3324,-0.3318,-0.3329,-0.3333,-0.3335,-0.3312,-0.3312,-0.3312,-0.3311,0,0,-0.33,-0.3302,-0.3304,-0.3305,-0.3308,-0.3311,-0.3317,-0.3321,-0.3324,-0.3327,-0.3331,-0.3338,-0.3335,-0.3337,-0.3336,-0.334,-0.3351,-0.3336,-0.3336,-0.3339,-0.3363,-0.3365,-0.3367,-0.3349,-0.3349,-0.335,-0.3362,0,-0.3311,-0.3321,-0.3319,-0.3329,-0.3333,-0.333,-0.3335,-0.3337,-0.3338,-0.3342,-0.3342,-0.3347,-0.3342,-0.3344,-0.3348,-0.3349,-0.3355,-0.3348,-0.3354,-0.3354,-0.3353,-0.3369,-0.3371,-0.3383,-0.3364,-0.3364,-0.3364,0,-0.3325,-0.3328,-0.3338,-0.3341,-0.3342,-0.3347,-0.3351,-0.3355,-0.3357,-0.3357,-0.336,-0.3358,-0.3364,-0.3359,-0.3367,-0.3362,-0.3365,-0.3366,-0.3366,-0.3366,-0.336,-0.337,-0.3387,-0.3389,-0.3367,-0.3367,-0.3367,0,-0.3335,-0.3342,-0.3349,-0.3351,-0.3353,-0.3357,-0.3358,-0.336,-0.3363,-0.3366,-0.3368,-0.3373,-0.3375,-0.3378,-0.3378,-0.3374,-0.3387,-0.3381,-0.3387,-0.3387,-0.339,-0.3389,-0.3408,-0.3392,-0.3392,-0.3392,-0.3392,0,-0.3348,-0.3354,-0.3354,-0.3358,-0.3365,-0.3364,-0.3371,-0.3372,-0.3374,-0.3379,-0.3376,-0.3381,-0.338,-0.3384,-0.3384,-0.3392,-0.3393,-0.3393,-0.3393,-0.3393,-0.3393,-0.3394,-0.3393,-0.3392,-0.3392,-0.3392,-0.3392,0,-0.336,-0.336,-0.3367,-0.3369,-0.337,-0.3375,-0.3377,-0.3381,-0.3382,-0.3388,-0.3389,-0.339,-0.3395,-0.3395,-0.3401,-0.3401,-0.341,-0.3409,-0.3409,-0.3409,-0.3415,-0.3414,-0.3434,-0.3437,-0.342,-0.342,-0.342,0,-0.3368,-0.3373,-0.3375,-0.3378,-0.338,-0.3384,-0.3387,-0.3387,-0.339,-0.3393,-0.3397,-0.3402,-0.3406,-0.3415,-0.3416,-0.3421,-0.342,-0.3427,-0.3421,-0.3421,-0.342,-0.342,-0.342,-0.3428,-0.3428,-0.3428,-0.3428,0,-0.3382,-0.3382,-0.3386,-0.339,-0.3394,-0.3397,-0.34,-0.3403,-0.3402,-0.3406,-0.3411,-0.3414,-0.3421,-0.3426,-0.3431,-0.3433,-0.343,-0.343,-0.3432,-0.3432,-0.3432,-0.3432,-0.3412,-0.343,-0.343,-0.343,-0.3429,-0.3429,-0.3392,-0.3396,-0.3399,-0.3404,-0.3406,-0.3409,-0.3413,-0.3414,-0.3419,-0.3424,-0.3423,-0.3429,-0.3433,-0.3439,-0.3441,-0.3446,-0.3444,-0.3446,-0.3447,-0.3447,-0.3448,-0.3431,-0.3447,-0.3447,-0.3447,-0.3447,-0.3447,0,-0.3406,-0.3408,-0.3412,-0.3416,-0.342,-0.3418,-0.3422,-0.3425,-0.3431,-0.3434,-0.3438,-0.3444,-0.345,-0.3451,-0.3457,-0.346,-0.3459,-0.3462,-0.3461,-0.3462,-0.3449,-0.3447,-0.3462,-0.3462,-0.3462,-0.3462,-0.3462,-0.3462,-0.3413,-0.342,-0.3421,-0.3429,-0.3431,-0.3437,-0.3439,-0.3442,-0.3445,-0.3452,-0.3456,-0.3457,-0.346,-0.3466,-0.3471,-0.3471,-0.3473,-0.3475,-0.3476,-0.3464,-0.3462,-0.3461,-0.3459,-0.3476,-0.3476,-0.3487,-0.3487,-0.3487]}]]